Find Starlink 5917

NORAD ID: 55942 Int'l Des: 2023-037 Owner: SPXS Country: US Constellation: starlink operational
LEOCIRCULAR

Live Position

Loading 3D Globe...

About Starlink 5917

Description loading...

Upcoming Passes

Passes for default location (London). Set your location on the main map for personalized predictions.

Altitude History

Loading altitude history...

Two-Line Element Set

1 55942U 23037AE 26105.60497745 -.00004225 00000-0 -34634-3 0 9994
2 55942 70.0006 191.2218 0003245 261.1628 98.9164 14.98350917169510
Epoch: Apr 15, 2026 • Age: 6 hours

Current Status

Altitude 584.5 km
Velocity 7.57 km/s
Sub-Earth Point -37.49°S, 19.19°E
Launch Date Mar 17, 2023
Age 3 years
Type internet

Technical Details

Classification Payload
Mass 305.00 kg
Dry Mass 290.00 kg
Total Mass 305.00 kg
Length 0.20 m
Diameter 2.80 m
Span 9.00 m
Shape Box + pan
Manufacturer SPXS
Bus Type Starlink
Phase Status In Orbit
Owner/State SPXS/US

Most Searched